Regional Weather Roundup
Issued by NWS

Home | Current Version | Previous Version | Graphics & Text | Print | Product List | Glossary On
Versions: 1 2 3 4 5 6 7 8 9 10 11 12 13 14 15 16 17 18 19 20 21 22 23 24 25 26 27 28 29 30 31 32 33 34 35 36 37 38 39 40 41 42 43 44 45 46 47 48 49 50
000
ASUS45 KSLC 022210
RWRUT

UTAH REGIONAL WEATHER ROUNDUP
NATIONAL WEATHER SERVICE SALT LAKE CITY UT
400 PM MDT THU JUL 02 2015

UTZ001>011-023>025-022300-

NORTHERN UTAH

CITY           SKY/WX    TMP DP  RH WIND       PRES   REMARKS
BRIGHAM CITY   SUNNY     95  35  12 NW7       30.02F HX  90
HILL AFB       SUNNY     94  46  19 VRB6      30.07F HX  90
LOGAN          SUNNY     93  45  19 VRB3      30.04F
OGDEN          SUNNY     95  45  17 W6        30.04F HX  91
PROVO AIRPORT  MOSUNNY   97  43  15 NW9       30.05F HX  92
SALT LAKE CITY PTSUNNY   97  38  13 W12       30.01F HX  92
VERNAL         MOSUNNY   92  40  16 SW3       30.06F
WENDOVER       PTSUNNY   99  45  15 S5        30.02F HX  94
HEBER CITY     SUNNY     95  32  11 NW10      30.12F HX  90
WEST JORDAN    SUNNY     95  36  12 W14G21    30.07F HX  90

$$

UTZ012>022-026-027-022300-

SOUTHERN/CENTRAL UTAH

CITY           SKY/WX    TMP DP  RH WIND       PRES   REMARKS
BLANDING       MOSUNNY   77  58  52 NE9       30.19F
BRYCE CANYON   CLOUDY    74  49  41 S9        30.32R THUNDER
CEDAR CITY     PTSUNNY   83  50  31 E17       30.15S
DELTA          PTSUNNY   97  38  13 N3        30.04F HX  92
HANKSVILLE     SUNNY    100  36  10 N7G16     29.99F HX  95
MILFORD        MOSUNNY   95  42  16 E3        30.06F HX  91
MOAB/CYNLANDS  SUNNY     95  49  20 VRB7      29.98F HX  92
PRICE          MOSUNNY   93  37  14 CALM      30.11F
ST GEORGE      CLEAR    100  55  22 W12       29.92F HX  99
KANAB          PTSUNNY   91  54  27 S9        30.13S

$$

REGIONAL REPORTS     COLORADO/ARIZONA

CITY           SKY/WX    TMP DP  RH WIND       PRES   REMARKS
CRAIG, CO      PTSUNNY   91  38  15 N7G16     30.15F
GRAND JUNCTION PTSUNNY   94  48  20 NE9G23    30.01F HX  90
RIFLE          MOSUNNY   95  41  15 N14       30.06F HX  91
MONTROSE       CLOUDY    88  48  25 W9        30.11F
CORTEZ         SUNNY     92  51  24 W16G23    30.11F
PAGE, AZ       MOSUNNY  100  45  15 S5        29.99F HX  96
GRAND CANYON   MOSUNNY   85  50  29 VRB6      30.23F
KINGMAN        SUNNY     98  51  20 W14G20    30.01F HX  95
FLAGSTAFF      PTSUNNY   80  54  40 SW10      30.26F

$$

REGIONAL REPORTS    NEVADA/IDAHO/WYOMING

CITY           SKY/WX    TMP DP  RH WIND       PRES   REMARKS
LAS VEGAS, NV  MOSUNNY  103  58  22 S7        29.84F HX 102
ELY            PTSUNNY   89  42  19 NE9       30.22F
ELKO           PTSUNNY   94  48  20 NE20      30.11R HX  90
POCATELLO, ID  MOSUNNY   94  39  14 NW6       30.06F HX  90
BURLEY         SUNNY     93  45  19 NW6       30.02F
EVANSTON, WY   MOSUNNY   84  37  18 SW10G22   30.25F
ROCK SPRINGS   SUNNY     86  43  22 VRB6      30.20F
KEMMERER       PTSUNNY   86  32  14 W3        30.26S

$$


USA.gov is the U.S. government's official web portal to all federal, state and local government web resources and services.